Location: Cicognara
(44.9500°N, 10.4667°E)
Time: 07:07:21
(UTC+00:00)

SJ 16-02 - Pass Details

Date: 20 June 2021
Orbit: 606 x 616 km, 75.0° (Epoch: 28 July)

Event Time Altitude Azimuth Distance (km) Brightness Sun altitude
Rises 23:10:16 0° 339° (NNW) 2,874 6.1 -21.6°
Reaches altitude 10° 23:12:31 10° 339° (NNW) 1,965 4.9 -21.6°
Maximum altitude 23:16:54 83° 253° (WSW) 617 1.2 -21.6°
Enters shadow 23:17:29 66° 178° (S) 663 1.2 -21.6°
